Regional Weather Roundup
Issued by NWS Mt. Holly, NJ

Home | Current Version | Previous Version | Text Only | Print | Product List | Glossary On
Versions: 1 2 3 4 5 6 7 8 9 10 11 12 13 14 15 16 17 18 19 20 21 22 23 24 25 26 27
000
ASUS41 KPHI 040612
RWRPHI

REGIONAL WEATHER ROUNDUP
NATIONAL WEATHER SERVICE MOUNT HOLLY NJ
200 AM EDT WED MAY 04 2016

NOTE:  "FAIR" INDICATES FEW OR NO CLOUDS BELOW 12,000 FEET WITH NO
SIGNIFICANT WEATHER AND/OR OBSTRUCTIONS TO VISIBILITY.

 * = STATION DOES NOT REPORT PRECIPITATION (E.G. RAIN, SNOW, ETC.)
        OR FOG.

NJZ015>026-040700-
SOUTHERN NEW JERSEY

CITY           SKY/WX    TMP DP  RH WIND       PRES   REMARKS
POMONA         CLOUDY    49  48  97 NE13      29.78S
6HR MIN TEMP:  49; 6HR MAX TEMP:  50;

WILDWOOD*      CLOUDY   N/A N/A N/A E9        29.77F
MILLVILLE      CLOUDY    50  47  89 NE9       29.78S
WRIGHTSTOWN    CLOUDY    48  48 100 NE7       29.77S FOG
MOUNT HOLLY    CLOUDY    49  48  97 NE5       29.80F
TRENTON        CLOUDY    50  47  89 E8        29.79F
6HR MIN TEMP:  50; 6HR MAX TEMP:  53;


$$
NJZ001>014-040700-
NORTHERN NEW JERSEY

CITY           SKY/WX    TMP DP  RH WIND       PRES   REMARKS
SUSSEX         CLOUDY    51  49  92 CALM      29.80F
ANDOVER*         N/A     51  50  96 CALM      29.80F
MORRISTOWN     CLOUDY    50  48  93 CALM      29.81F FOG
NEWARK         CLOUDY    50  49  95 SE6       29.81F
TETERBORO      DRIZZLE   51  48  89 E6        29.79F FOG
CALDWELL       CLOUDY    51  49  92 S3        29.81S FOG
SOMERVILLE     CLOUDY    50  49  96 VRB3      29.79F FOG
ALLAIRE*       CLOUDY    48  47  96 E10       29.80F
TOMS RIVER*    CLOUDY    48  45  87 E5        29.80F

$$
PAZ043-044-047-054-055-060>062-066>071-040700-
EASTERN PENNSYLVANIA

CITY           SKY/WX    TMP DP  RH WIND       PRES   REMARKS
PHILADELPHIA   CLOUDY    52  47  83 E8        29.80F
6HR MIN TEMP:  52; 6HR MAX TEMP:  56;

NORTH PHILA    CLOUDY    52  48  86 E5        29.82F
BLUE BELL*     CLOUDY    48  46  93 E3        29.79F
DOYLESTOWN     CLOUDY    48  48 100 CALM      29.79F
QUAKERTOWN*    CLOUDY    50  50 100 SE6       29.80F
PERKASIE*      CLOUDY    48  48 100 E3        29.81F
POTTSTOWN      CLOUDY    51  49  92 E3        29.80F
LANCASTER      LGT RAIN  53  52  96 SE3       29.78F FOG
COATESVILLE    CLOUDY    52  52 100 MISG      29.80S
READING        CLOUDY    53  49  86 SE10      29.78F
6HR MIN TEMP:  53; 6HR MAX TEMP:  57; 6HR PCP:  0.01;

ALLENTOWN      CLOUDY    53  50  89 SE6       29.79F
6HR MIN TEMP:  53; 6HR MAX TEMP:  55; 6HR PCP: TRACE;

MOUNT POCONO   FOG       47  45  93 SE3       29.78F VSB 1/4
6HR MIN TEMP:  47; 6HR MAX TEMP:  48;

HAZLETON       DRIZZLE   50  50 100 SE3       29.80F
LEHIGHTON      LGT RAIN  52  52 100 CALM      29.79F
WILKES BARRE   CLOUDY    50  49  96 CALM      29.78F FOG

$$
DEZALL-MDZ008-012-015-019-020-040700-
DELAWARE AND EASTERN MARYLAND

CITY           SKY/WX    TMP DP  RH WIND       PRES   REMARKS
WILMINGTON     CLOUDY    52  48  86 E6        29.80S
6HR MIN TEMP:  52; 6HR MAX TEMP:  56; 6HR PCP: TRACE;

DOVER          CLOUDY    51  51  99 NE6       29.78S
GEORGETOWN     CLOUDY    50  49  96 NE12      29.78F
6HR MIN TEMP:  50; 6HR MAX TEMP:  56; 6HR PCP:  0.01;

EASTON         DRIZZLE  N/A N/A N/A E6        29.81F
PATUXENT       CLOUDY    55  53  93 NE8       29.75S
OCEAN CITY     CLOUDY    50  49  96 NE12      29.75F
WALLOPS ISLAND CLOUDY    53  52  96 N8        29.74F FOG
CAMBRIDGE      CLOUDY    50  50 100 NE3       29.76F
SALISBURY      CLOUDY    51  50  96 N6        29.76S

$$
PAZ001-021-NYZ056-072-MDZ011-DCZ001-040700-
OTHER NEARBY LOCATIONS

CITY           SKY/WX    TMP DP  RH WIND       PRES   REMARKS
HARRISBURG     LGT RAIN  55  52  89 SE6       29.76F FOG
STATE COLLEGE  CLOUDY    50  48  93 NE5       29.77S
WILLIAMSPORT   CLOUDY    52  47  83 E3        29.77F
BINGHAMTON     CLOUDY    46  45  96 CALM      29.77F
NEW YORK CITY  CLOUDY    51  48  89 VRB5      29.83F FOG
BALTIMORE      LGT RAIN  55  53  93 E8        29.78S
WASHINGTON DC  DRIZZLE   57  55  93 NE9       29.77F

$$




USA.gov is the U.S. government's official web portal to all federal, state and local government web resources and services.